Weather History for KPTT - February, 2014

Change the Weather History Date:

Wednesday, February 12, 2014

  Actual Average (KP28) Record (KP28)
Temperature  
Mean Temperature 20 °F 37 °F  
Max Temperature 35 °F 50 °F 88 °F (1962)
Min Temperature 6 °F 25 °F -7 °F (1905)
Degree Days  
Heating Degree Days 44 28  
Month to date heating degree days 347  
Since 1 July heating degree days 3124  
Cooling Degree Days 0 0  
Month to date cooling degree days 0  
Year to date cooling degree days 0  
Moisture  
Dew Point 21 °F    
Average Humidity 86    
Maximum Humidity 100    
Minimum Humidity 75    
Precipitation  
Precipitation 0.00 in 0.03 in 0.88 in (1978)
Month to date precipitation 0.37  
Year to date precipitation 1.08  
Snow  
Snow 0.00 in 0.10 in - ()
Month to date snowfall 1.3  
Since 1 July snowfall 7.5  
Snow Depth -    
Sea Level Pressure  
Sea Level Pressure 30.07 in    
Wind  
Wind Speed 10 mph (West)    
Max Wind Speed 25 mph    
Max Gust Speed 30 mph    
Visibility 9 miles    
Events      
T = Trace of Precipitation, MM = Missing Value Source: NWS Daily Summary

Daily Weather History Graph

Daily Weather History Graph

Search for Another Location

Airport or City:

Trip Planner

Search our weather history database for the weather conditions in past years. The results will help you decide how hot, cold, wet, or windy it might be!

Date:

Astronomy

Feb. 12, 2014 Rise Set
Actual Time 7:27 AM CST 6:11 PM CST
Civil Twilight 7:00 AM CST 6:37 PM CST
Nautical Twilight 6:30 AM CST 7:08 PM CST
Astronomical Twilight 5:59 AM CST 7:39 PM CST
Moon 4:26 PM CST (2/12) 5:44 AM CST (2/12)
Length of Visible Light 11h 37m
Length of Day
10h 43m
Waxing Gibbous, 95% of the Moon is Illuminated
Feb 12
Waxing Gibbous
Feb 14
Full
Feb 22
Last Quarter
Mar 1
New
Mar 8
First Quarter

Hourly Weather History & Observations

Time (CST) Temp. Windchill Dew Point Humidity Pressure Visibility Wind Dir Wind Speed Gust Speed Precip Events Conditions
12:15 AM 6.8 °F -3.5 °F 3.2 °F 85% 30.14 in 10.0 mi SSW 5.8 mph - N/A   Clear
12:35 AM 8.6 °F -1.3 °F 5.0 °F 85% 30.13 in 10.0 mi SSW 5.8 mph - N/A   Clear
12:55 AM 10.4 °F -2.4 °F 6.8 °F 85% 30.12 in 10.0 mi South 9.2 mph - N/A   Clear
1:15 AM 12.2 °F -1.0 °F 10.4 °F 92% 30.11 in 10.0 mi SSW 10.4 mph - N/A   Clear
1:35 AM 14.0 °F 1.2 °F 10.4 °F 86% 30.11 in 10.0 mi SSW 10.4 mph - N/A   Clear
1:55 AM 14.0 °F 2.0 °F 12.2 °F 93% 30.11 in 10.0 mi SSW 9.2 mph - N/A   Clear
2:15 AM 14.0 °F 5.1 °F 10.4 °F 86% 30.10 in 10.0 mi SSW 5.8 mph - N/A   Clear
2:35 AM 12.2 °F 2.9 °F 10.4 °F 92% 30.10 in 10.0 mi SSW 5.8 mph - N/A   Clear
2:55 AM 14.0 °F 0.5 °F 12.2 °F 93% 30.10 in 10.0 mi SSW 11.5 mph - N/A   Clear
3:15 AM 15.8 °F 2.7 °F 12.2 °F 86% 30.09 in 10.0 mi SSW 11.5 mph - N/A   Mostly Cloudy
3:35 AM 15.8 °F 5.1 °F 14.0 °F 93% 30.09 in 10.0 mi SW 8.1 mph - N/A   Mostly Cloudy
3:55 AM 15.8 °F 2.7 °F 12.2 °F 86% 30.08 in 10.0 mi SSW 11.5 mph - N/A   Clear
4:15 AM 15.8 °F 2.7 °F 14.0 °F 93% 30.07 in 10.0 mi SSW 11.5 mph - N/A   Clear
4:35 AM 17.6 °F 6.4 °F 14.0 °F 86% 30.07 in 7.0 mi SW 9.2 mph - N/A   Scattered Clouds
4:55 AM 17.6 °F 8.2 °F 14.0 °F 86% 30.09 in 10.0 mi WSW 6.9 mph - N/A   Scattered Clouds
5:15 AM 17.6 °F 5.7 °F 14.0 °F 86% 30.08 in 10.0 mi WSW 10.4 mph - N/A   Clear
5:35 AM 17.6 °F 5.7 °F 14.0 °F 86% 30.07 in 10.0 mi SW 10.4 mph - N/A   Clear
5:55 AM 15.8 °F 4.2 °F 14.0 °F 93% 30.08 in 7.0 mi SW 9.2 mph - N/A   Clear
6:15 AM 14.0 °F 2.9 °F 12.2 °F 93% 30.07 in 7.0 mi SW 8.1 mph - N/A   Clear
6:35 AM 12.2 °F -0.2 °F 10.4 °F 92% 30.08 in 7.0 mi WSW 9.2 mph - N/A   Clear
6:55 AM 14.0 °F 0.5 °F 12.2 °F 93% 30.09 in 7.0 mi West 11.5 mph - N/A   Clear
7:15 AM 14.0 °F 2.0 °F 12.2 °F 93% 30.09 in 7.0 mi West 9.2 mph - N/A   Clear
7:35 AM 19.4 °F 7.2 °F 17.6 °F 93% 30.09 in 10.0 mi WNW 11.5 mph - N/A   Clear
7:55 AM 23.0 °F 10.6 °F 19.4 °F 86% 30.10 in 10.0 mi WNW 13.8 mph - N/A   Clear
8:15 AM 23.0 °F 11.1 °F 19.4 °F 86% 30.10 in 10.0 mi NW 12.7 mph - N/A   Scattered Clouds
8:35 AM 28.4 °F 17.5 °F 23.0 °F 80% 30.09 in 10.0 mi NW 13.8 mph - N/A   Scattered Clouds
8:55 AM 30.2 °F 19.3 °F 23.0 °F 75% 30.10 in 10.0 mi NW 15.0 mph - N/A   Mostly Cloudy
9:15 AM 30.2 °F 19.8 °F 24.8 °F 80% 30.10 in 10.0 mi NNW 13.8 mph - N/A   Scattered Clouds
9:35 AM 32.0 °F 21.2 °F 26.6 °F 80% 30.11 in 7.0 mi NNW 16.1 mph - N/A   Clear
9:55 AM 32.0 °F 19.5 °F 28.4 °F 87% 30.12 in 10.0 mi NNW 21.9 mph - N/A   Clear
10:15 AM 33.8 °F 22.2 °F 28.4 °F 81% 30.13 in 7.0 mi NNW 20.7 mph 28.8 mph N/A   Clear
10:35 AM 33.8 °F 21.6 °F 28.4 °F 81% 30.13 in 7.0 mi North 23.0 mph 28.8 mph N/A   Clear
10:55 AM 33.8 °F 22.5 °F 28.4 °F 81% 30.13 in 7.0 mi North 19.6 mph - N/A   Clear
11:15 AM 35.6 °F 24.2 °F 28.4 °F 75% 30.13 in 7.0 mi North 21.9 mph - N/A   Clear
11:35 AM 33.8 °F 21.3 °F 28.4 °F 81% 30.12 in 7.0 mi North 24.2 mph 28.8 mph N/A   Clear
11:55 AM 35.6 °F 24.8 °F 28.4 °F 75% 30.12 in 10.0 mi North 19.6 mph - N/A   Clear
12:15 PM 35.6 °F 23.7 °F 28.4 °F 75% 30.11 in 10.0 mi North 24.2 mph - N/A   Clear
12:35 PM 33.8 °F 21.0 °F 28.4 °F 81% 30.11 in 7.0 mi North 25.3 mph 29.9 mph N/A   Clear
12:55 PM 33.8 °F 21.6 °F 28.4 °F 81% 30.10 in 10.0 mi North 23.0 mph - N/A   Clear
1:15 PM 33.8 °F 21.3 °F 28.4 °F 81% 30.10 in 10.0 mi North 24.2 mph - N/A   Clear
1:35 PM 33.8 °F 22.8 °F 28.4 °F 81% 30.10 in 10.0 mi NNW 18.4 mph - N/A   Clear
1:55 PM 35.6 °F 26.2 °F 28.4 °F 75% 30.09 in 10.0 mi NNW 15.0 mph - N/A   Clear
2:15 PM 35.6 °F 28.0 °F 28.4 °F 75% 30.08 in 10.0 mi NW 10.4 mph - N/A   Clear
2:35 PM 35.6 °F 27.5 °F 28.4 °F 75% 30.07 in 10.0 mi NNW 11.5 mph - N/A   Clear
2:55 PM 35.6 °F 28.0 °F 28.4 °F 75% 30.06 in 10.0 mi North 10.4 mph - N/A   Clear
3:15 PM 35.6 °F 28.0 °F 28.4 °F 75% 30.06 in 10.0 mi NNW 10.4 mph - N/A   Clear
3:35 PM 35.6 °F 29.2 °F 28.4 °F 75% 30.06 in 10.0 mi NW 8.1 mph - N/A   Clear
3:55 PM 35.6 °F 28.6 °F 28.4 °F 75% 30.06 in 10.0 mi NNW 9.2 mph - N/A   Clear
4:15 PM 35.6 °F 29.2 °F 28.4 °F 75% 30.05 in 10.0 mi NW 8.1 mph - N/A   Clear
4:35 PM 33.8 °F 26.4 °F 28.4 °F 81% 30.06 in 10.0 mi NW 9.2 mph - N/A   Clear
4:55 PM 32.0 °F 24.2 °F 28.4 °F 87% 30.05 in 10.0 mi NW 9.2 mph - N/A   Clear
5:15 PM 32.0 °F 24.8 °F 28.4 °F 87% 30.05 in 10.0 mi WNW 8.1 mph - N/A   Clear
5:35 PM 32.0 °F 27.5 °F 28.4 °F 87% 30.03 in 10.0 mi NW 4.6 mph - N/A   Clear
5:55 PM 32.0 °F 27.5 °F 26.6 °F 80% 30.03 in 10.0 mi WNW 4.6 mph - N/A   Clear
6:15 PM 30.2 °F 25.4 °F 26.6 °F 86% 30.03 in 10.0 mi WNW 4.6 mph - N/A   Clear
6:35 PM 30.2 °F - 26.6 °F 86% 30.02 in 10.0 mi Calm Calm - N/A   Clear
6:55 PM 28.4 °F 24.6 °F 24.8 °F 86% 30.01 in 10.0 mi WSW 3.5 mph - N/A   Clear
7:15 PM 26.6 °F 21.2 °F 24.8 °F 93% 30.03 in 10.0 mi West 4.6 mph - N/A   Clear
7:35 PM 26.6 °F 22.6 °F 23.0 °F 86% 30.02 in 10.0 mi WSW 3.5 mph - N/A   Clear
7:55 PM 26.6 °F 21.2 °F 24.8 °F 93% 30.01 in 10.0 mi SSW 4.6 mph - N/A   Clear
8:15 PM 28.4 °F 24.6 °F 26.6 °F 93% 30.00 in 10.0 mi South 3.5 mph - N/A   Clear
8:35 PM 26.6 °F 22.6 °F 24.8 °F 93% 30.00 in 10.0 mi South 3.5 mph - N/A   Clear
8:55 PM 26.6 °F 20.0 °F 24.8 °F 93% 29.97 in 10.0 mi SE 5.8 mph - N/A   Clear
9:15 PM 24.8 °F 17.9 °F 23.0 °F 93% 29.98 in 10.0 mi SSW 5.8 mph - N/A   Clear
9:35 PM 21.2 °F 9.5 °F 19.4 °F 93% 29.98 in 7.0 mi SW 11.5 mph - N/A   Clear
9:55 PM 21.2 °F 10.9 °F 21.2 °F 100% 30.00 in 10.0 mi WSW 9.2 mph - N/A   Clear
10:15 PM 19.4 °F 10.4 °F 19.4 °F 100% 29.99 in 10.0 mi WSW 6.9 mph - N/A   Clear
10:35 PM 21.2 °F 14.9 °F 21.2 °F 100% 29.97 in 10.0 mi SW 4.6 mph - N/A   Clear
10:55 PM 21.2 °F 14.9 °F 21.2 °F 100% 29.96 in 10.0 mi South 4.6 mph - N/A   Clear
11:15 PM 21.2 °F 12.6 °F 21.2 °F 100% 29.95 in 10.0 mi South 6.9 mph - N/A   Clear
11:35 PM 19.4 °F 8.6 °F 17.6 °F 93% 29.93 in 7.0 mi SSW 9.2 mph - N/A   Clear
11:55 PM 21.2 °F 12.6 °F 19.4 °F 93% 29.92 in 7.0 mi SSW 6.9 mph - N/A   Clear